ONEWEB-0621 (55162 NORAD) Tracking and Keplerian Element Data

This shows tracking and keplerian element data for the satellite.

Feedback or suggestion? Click here.




ElementValue
Catalog55162
NameONEWEB-0621
Epoch Orbit130
Epoch Day13.91667824
Epoch Year2023
RAAN284.1441
Inclination86.5115
Eccentricity0.0007923
Argument of Perigee204.3474
Mean Anonmoly53.8726
Mean Motion14.90376748
Decay Rate-0.00050138
L11 55162U 23004Y 23013.91667824 -.00050138 00000+0 -51970-2 0 9992
L22 55162 86.5115 284.1441 0007923 204.3474 53.8726 14.90376748 1300



Live tracking and technical data element details for ONEWEB-0621 (NORAD 55162). ONEWEB-0621 can be tracked NOW for your location showing map with azimuth and elevation plus other details from your city location.







IsCatalogInMostPopularTable: catalog: 55162, numindb: 3
Update: records affected: 1



GetName: 55162 ONEWEB-0621

Hit Count: updated at: Tue, 07 Feb 2023 15:42:22 GMT